Overview Statistics Trail Chart Weather Telemetry Raw packets
 

This is the latest recevied weather packets stored in our database for station/object JA0BES-13. If no packets are shown the sender has not sent any weather packets the latest 10 day(s).

<< 1 2 3 4 5 6 >>
Time Temp. Humidity Pressure Rain* Wind** Luminosity Snow
1788603421 23.89° C 96% 1012.8 hPa 0 mm - - -
1788602821 23.89° C 96% 1012.6 hPa 0 mm - - -
1788602221 23.89° C 96% 1012.4 hPa 0 mm - - -
1788601620 23.89° C 96% 1012.3 hPa 0 mm - - -
1788601020 23.89° C 95% 1012.2 hPa 0 mm - - -
1788600419 24.44° C 94% 1012.2 hPa 0 mm - - -
1788599819 24.44° C 93% 1011.8 hPa 0 mm - - -
1788599219 24.44° C 92% 1011.6 hPa 0 mm - - -
1788598619 25° C 90% 1011.5 hPa 0 mm - - -
1788598018 25° C 88% 1011.4 hPa 0 mm - - -
1788597418 26.11° C 86% 1011.2 hPa 0 mm - - -
1788596817 26.67° C 83% 1011.6 hPa 0 mm - - -
1788596217 28.33° C 81% 1011.3 hPa 0 mm - - -
1788595617 28.33° C 84% 1011 hPa 0 mm - - -
1788595017 27.22° C 83% 1011.2 hPa 0 mm - - -
1788594416 27.22° C 83% 1011.1 hPa 0 mm - - -
1788593816 27.22° C 83% 1011.1 hPa 0 mm - - -
1788593215 27.22° C 83% 1011 hPa 0 mm - - -
1788592615 27.22° C 82% 1011 hPa 0 mm - - -
1788592014 27.78° C 81% 1010.8 hPa 0 mm - - -
1788591414 27.78° C 78% 1011.2 hPa 0 mm - - -
1788590814 28.33° C 76% 1010.8 hPa 0 mm - - -
1788590214 28.89° C 76% 1011.1 hPa 0 mm - - -
1788589613 28.89° C 77% 1011.2 hPa 0 mm - - -
1788589013 28.89° C 76% 1011.2 hPa 0 mm - - -

* Rain since midnight (hover to see other rain measurements)
** Current wind speed in m/s (hover to see current wind gust speed)